Weather History for Mansfield, OH

Change the Weather History Date:

Monday, December 2, 2013

  Actual Average Record
Temperature  
Mean Temperature 34 °F 34 °F  
Max Temperature 38 °F 41 °F 68 °F (1982)
Min Temperature 30 °F 27 °F -7 °F (1976)
Degree Days  
Heating Degree Days 31 31  
Month to date heating degree days 59 61  
Since 1 July heating degree days 1391 1342  
Cooling Degree Days 0 0  
Month to date cooling degree days 0 0  
Year to date cooling degree days 741 632  
Moisture  
Dew Point 31 °F    
Average Humidity 88    
Maximum Humidity 100    
Minimum Humidity 76    
Precipitation  
Precipitation T in 0.11 in 1.16 in (1991)
Month to date precipitation T 0.22  
Year to date precipitation 38.83 41.12  
Snow  
Snow T in 0.20 in - ()
Month to date snowfall T 0.4  
Since 1 July snowfall 1.5 3.1  
Snow Depth 0.00 in    
Sea Level Pressure  
Sea Level Pressure 29.90 in    
Wind  
Wind Speed 3 mph (NNE)    
Max Wind Speed 7 mph    
Max Gust Speed 9 mph    
Visibility 4 miles    
Events Fog    
T = Trace of Precipitation, MM = Missing Value Source: NWS Daily Summary

Daily Weather History Graph

Daily Weather History Graph

Search for Another Location

Airport:

Trip Planner

Search our weather history database for the weather conditions in past years. The results will help you decide how hot, cold, wet, or windy it might be!

Date:

Astronomy

Dec. 02, 2013 Rise Set
Actual Time 7:36 AM EST 5:02 PM EST
Civil Twilight 7:05 AM EST 5:33 PM EST
Nautical Twilight 6:31 AM EST 6:07 PM EST
Astronomical Twilight 5:58 AM EST 6:40 PM EST
Moon 6:59 AM EST (12/2) 5:04 PM EST (12/2)
Length of Visible Light 10h 27m
Length of Day
9h 26m
Waning Crescent, 0% of the Moon is Illuminated
Dec 2
Waning Crescent
Dec 2
New
Dec 9
First Quarter
Dec 17
Full
Dec 25
Last Quarter

Hourly Weather History & Observations

Time (EST) Temp. Windchill Dew Point Humidity Pressure Visibility Wind Dir Wind Speed Gust Speed Precip Events Conditions
12:52 AM 32.0 °F - 30.0 °F 92% 29.96 in 7.0 mi Calm Calm - N/A   Partly Cloudy
1:52 AM 32.0 °F 27.5 °F 30.9 °F 96% 29.95 in 5.0 mi NNW 4.6 mph - N/A   Overcast
2:52 AM 30.9 °F - 30.9 °F 100% 29.94 in 5.0 mi Calm Calm - N/A   Overcast
3:34 AM 30.2 °F - 28.4 °F 93% 29.91 in 3.0 mi Calm Calm - N/A   Mostly Cloudy
3:52 AM 30.9 °F - 30.9 °F 100% 29.94 in 3.0 mi Calm Calm - N/A   Overcast
4:23 AM 30.2 °F - 30.2 °F 100% 29.91 in 3.0 mi Calm Calm - N/A   Overcast
4:33 AM 32.0 °F 28.7 °F 30.2 °F 93% 29.91 in 1.5 mi NW 3.5 mph - N/A   Overcast
4:39 AM 32.0 °F 28.7 °F 32.0 °F 100% 29.91 in 0.2 mi NNW 3.5 mph - N/A Fog Fog
4:52 AM 32.0 °F - 32.0 °F 100% 29.94 in 0.2 mi Calm Calm - N/A Fog Fog
5:52 AM 32.0 °F 28.7 °F 32.0 °F 100% 29.93 in 0.2 mi North 3.5 mph - N/A Fog Fog
6:52 AM 32.0 °F 25.6 °F 32.0 °F 100% 29.94 in 0.2 mi NNW 6.9 mph - N/A Fog Fog
7:52 AM 32.0 °F 27.5 °F 32.0 °F 100% 29.94 in 0.2 mi North 4.6 mph - N/A Fog Fog
8:52 AM 32.0 °F 27.5 °F 32.0 °F 100% 29.95 in 0.2 mi NNW 4.6 mph - N/A Fog Fog
9:42 AM 33.8 °F 30.8 °F 33.8 °F 100% 29.91 in 0.2 mi NNE 3.5 mph - N/A Fog Fog
9:52 AM 33.1 °F - 33.1 °F 100% 29.94 in 0.2 mi Calm Calm - N/A Fog Fog
10:26 AM 33.8 °F 30.8 °F 33.8 °F 100% 29.90 in 0.5 mi NE 3.5 mph - N/A Fog Fog
10:36 AM 33.8 °F 30.8 °F 33.8 °F 100% 29.90 in 1.2 mi North 3.5 mph - N/A   Overcast
10:52 AM 34.0 °F 28.8 °F 34.0 °F 100% 29.93 in 2.0 mi NE 5.8 mph - N/A   Overcast
11:24 AM 33.8 °F 29.6 °F 33.8 °F 100% 29.88 in 3.0 mi NE 4.6 mph - N/A   Overcast
11:37 AM 35.6 °F 30.7 °F 33.8 °F 93% 29.88 in 3.0 mi North 5.8 mph - N/A   Overcast
11:52 AM 35.1 °F 30.1 °F 33.1 °F 92% 29.90 in 4.0 mi North 5.8 mph - N/A   Overcast
12:22 PM 35.6 °F 30.7 °F 33.8 °F 93% 29.87 in 5.0 mi North 5.8 mph - N/A   Overcast
12:47 PM 37.4 °F 34.9 °F 33.8 °F 87% 29.86 in 5.0 mi North 3.5 mph - N/A   Overcast
12:52 PM 37.0 °F - 32.0 °F 82% 29.90 in 6.0 mi Calm Calm - N/A   Haze
1:19 PM 37.4 °F 34.9 °F 30.2 °F 75% 29.86 in 6.0 mi North 3.5 mph - N/A   Haze
1:52 PM 37.9 °F 35.5 °F 30.9 °F 76% 29.89 in 6.0 mi North 3.5 mph - N/A   Haze
2:02 PM 37.4 °F 34.9 °F 30.2 °F 75% 29.86 in 6.0 mi Variable 3.5 mph - N/A   Haze
2:52 PM 37.9 °F 34.4 °F 30.9 °F 76% 29.87 in 6.0 mi North 4.6 mph - N/A   Haze
3:52 PM 37.0 °F 34.5 °F 30.9 °F 79% 29.87 in 7.0 mi ENE 3.5 mph - N/A   Mostly Cloudy
4:52 PM 36.0 °F 31.1 °F 30.0 °F 79% 29.87 in 7.0 mi NNE 5.8 mph - N/A   Overcast
5:52 PM 33.1 °F 30.0 °F 28.9 °F 85% 29.89 in 8.0 mi NNE 3.5 mph - N/A   Clear
6:52 PM 33.1 °F 30.0 °F 28.9 °F 85% 29.89 in 7.0 mi NE 3.5 mph - N/A   Overcast
7:52 PM 32.0 °F 28.7 °F 28.9 °F 88% 29.89 in 8.0 mi ENE 3.5 mph - N/A   Overcast
8:52 PM 33.1 °F 30.0 °F 28.9 °F 85% 29.89 in 8.0 mi NE 3.5 mph - N/A   Overcast
9:52 PM 33.1 °F 28.7 °F 30.0 °F 89% 29.90 in 7.0 mi East 4.6 mph - N/A   Overcast
10:52 PM 34.0 °F 29.8 °F 30.0 °F 85% 29.89 in 6.0 mi East 4.6 mph - N/A   Overcast
11:52 PM 34.0 °F 31.0 °F 30.9 °F 89% 29.89 in 6.0 mi East 3.5 mph - 0.00 in   Overcast